This is the latest recevied weather packets stored in our database for station/object KG5EO. If no packets are shown the sender has not sent any weather packets the latest 10 day(s).
| Time | Temp. | Humidity | Pressure | Rain* | Wind** | Luminosity | Snow |
|---|---|---|---|---|---|---|---|
| 1777794681 | 21.67° C | 37% | 40.9 hPa | 0 mm | - | - | - |
| 1777794381 | 21.67° C | 37% | 40.9 hPa | 0 mm | - | - | - |
| 1777794080 | 21.67° C | 32% | 40.9 hPa | 0 mm | - | - | - |
| 1777793780 | 22.22° C | 33% | 40.9 hPa | 0 mm | - | - | - |
| 1777793451 | 22.22° C | 41% | 40.9 hPa | 0 mm | - | - | - |
| 1777793150 | 22.78° C | 33% | 41 hPa | 0 mm | - | - | - |
| 1777792850 | 22.78° C | 31% | 40.9 hPa | 0 mm | - | - | - |
| 1777792550 | 23.33° C | 29% | 40.9 hPa | 0 mm | - | - | - |
| 1777792280 | 23.33° C | 28% | 40.9 hPa | 0 mm | - | - | - |
| 1777791951 | 23.89° C | 27% | 41 hPa | 0 mm | - | - | - |
| 1777791680 | 23.89° C | 28% | 41 hPa | 0 mm | - | - | - |
| 1777791380 | 24.44° C | 26% | 40.9 hPa | 0 mm | - | - | - |
| 1777791079 | 24.44° C | 28% | 40.9 hPa | 0 mm | - | - | - |
| 1777790779 | 24.44° C | 25% | 40.9 hPa | 0 mm | - | - | - |
| 1777790479 | 25° C | 24% | 41 hPa | 0 mm | - | - | - |
| 1777790180 | 25° C | 24% | 41 hPa | 0 mm | - | - | - |
| 1777789878 | 25.56° C | 24% | 41 hPa | 0 mm | - | - | - |
| 1777789579 | 25.56° C | 23% | 41 hPa | 0 mm | - | - | - |
| 1777789278 | 25.56° C | 23% | 41 hPa | 0 mm | - | - | - |
| 1777788978 | 25° C | 24% | 41 hPa | 0 mm | - | - | - |
| 1777788678 | 24.44° C | 25% | 40.9 hPa | 0 mm | - | - | - |
| 1777788378 | 23.89° C | 27% | 40.9 hPa | 0 mm | - | - | - |
| 1777788078 | 23.89° C | 28% | 40.9 hPa | 0 mm | - | - | - |
| 1777787779 | 24.44° C | 27% | 40.9 hPa | 0 mm | - | - | - |
| 1777787477 | 24.44° C | 25% | 40.9 hPa | 0 mm | - | - | - |
* Rain latest hour (hover to see other rain measurements)
** Current wind speed in m/s (hover to see current wind gust speed)